Simultaneous Nadir Overpasses (SNOs) Predictions

Prediction of SNOs between METOP-B and NOAA-19 Satellite Orbit:

Table of predicted SNOs for the next 14.0 days since TLE Epoch: 9/20/2014
Index Date (METOP-B) Time (METOP-B) Lat,Lon (METOP-B) SZA (METOP-B ) Date (NOAA-19) Time (NOAA-19) Lat,Lon (NOAA-19) SZA (NOAA-19 ) Distance(km) Time Diff (sec)
1 09/24/2014 11:58:59 74.68, -3.42 75.15 09/24/2014 11:57:49 74.70, -5.37 75.20 57.35 70
2 09/24/2014 12:49:47 -74.32, 162.94 105.20 09/24/2014 12:48:36 -74.31, 162.97 105.20 0.97 71
3 09/24/2014 13:40:27 74.32, -29.72 74.82 09/24/2014 13:39:43 74.30, -29.78 74.80 2.77 44
4 09/24/2014 14:31:09 -74.29, 137.54 105.20 09/24/2014 14:30:39 -74.29, 137.51 105.20 1.14 30
5 09/24/2014 15:21:50 74.25, -55.24 74.78 09/24/2014 15:21:46 74.28, -55.24 74.81 3.75 4
6 09/24/2014 16:12:31 -74.27, 112.15 105.19 09/24/2014 16:12:42 -74.27, 112.05 105.19 2.96 11
7 09/24/2014 17:03:12 74.22, -80.64 74.78 09/24/2014 17:03:48 74.21, -80.57 74.77 2.43 36
8 09/24/2014 17:53:54 -74.20, 86.62 105.23 09/24/2014 17:54:44 -74.20, 86.71 105.23 2.78 50
9 09/24/2014 18:44:36 74.10,-106.29 74.69 09/24/2014 18:45:49 74.09,-105.78 74.67 15.36 73
10 09/24/2014 19:35:29 -73.53, 59.69 105.85 09/24/2014 19:36:34 -73.55, 62.83 105.87 99.06 65




NCC Satellite Simultaneous Nadir Overpasses (SNOs) Prediction Service
